WEATHER DATA

YESTERDAY
Time Temp. Dewp. Hum. Wind dir Wind speed Wind gust Bar. 1h Prec. 24h Prec.
00:00 21.2 13.1 60 206 0.3 0.6 1011.1 0.0000 0.0000
00:10 21.2 13.1 60 156 0.3 0.6 1011.2 0.0000 0.0000
00:20 21.1 13.3 61 135 0.3 0.6 1011.1 0.0000 0.0000
00:30 20.9 12.9 60 135 0.3 0.6 1011.1 0.0000 0.0000
00:41 20.8 13 61 135 0.3 0.6 1010.9 0.0000 0.0000
00:51 20.7 12.9 61 135 0.3 0.6 1010.9 0.0000 0.0000
01:00 20.7 13.2 62 135 0.3 0.6 1010.7 0.0000 0.0000
01:11 20.6 12.8 61 90 0.3 0.6 1010.6 0.0000 0.0000
01:21 20.5 12.7 61 0 0.6 1010.7 0.0000 0.0000
01:31 20.4 12.6 61 90 0.3 0.6 1010.9 0.0000 0.0000
01:41 20.3 12.8 62 135 0.3 0.6 1010.7 0.0000 0.0000
01:52 20.2 12.7 62 135 0.3 0.8 1010.6 0.0000 0.0000
02:02 20.1 12.6 62 45 0.3 0.6 1010.5 0.0000 0.0000
02:11 20 12.5 62 135 0.3 0.8 1010.5 0.0000 0.0000
02:22 20 12.5 62 135 0.3 0.6 1010.4 0.0000 0.0000
02:32 19.9 12.4 62 168 0.3 0.6 1010.3 0.0000 0.0000
02:42 19.9 12.4 62 180 0.3 0.6 1010.4 0.0000 0.0000
02:52 19.9 12.4 62 168 0.3 0.6 1010.3 0.0000 0.0000
03:03 19.8 12.3 62 0 0.6 1010.2 0.0000 0.0000
03:12 19.7 12.2 62 0 0.6 1010.1 0.0000 0.0000
03:22 19.7 12.5 63 0 0.3 1010 0.0000 0.0000
03:32 19.6 12.1 62 0 0.6 1009.9 0.0000 0.0000
03:43 19.6 12.1 62 0 0.6 1009.9 0.0000 0.0000
03:53 19.5 12.3 63 0 0.6 1010 0.0000 0.0000
04:03 19.5 12.3 63 135 0.3 0.6 1010 0.0000 0.0000
04:13 19.5 12.3 63 45 0.3 0.6 1009.8 0.0000 0.0000
04:23 19.4 11.9 62 0 0.3 1009.7 0.0000 0.0000
04:33 19.4 12.2 63 0 0.6 1009.7 0.0000 0.0000
04:43 19.4 12.2 63 0 0.6 1009.7 0.0000 0.0000
04:54 19.3 12.3 64 0 0.6 1009.7 0.0000 0.0000
05:04 19.3 12.3 64 0 0.3 1009.8 0.0000 0.0000
05:13 19.3 12.3 64 171 0.3 0.6 1009.8 0.0000 0.0000
05:24 19.3 12.3 64 270 0.3 0.6 1009.8 0.0000 0.0000
05:34 19.1 12.1 64 225 0.3 0.6 1009.7 0.0000 0.0000
05:44 19.1 12.1 64 0 0.6 1009.5 0.0000 0.0000
05:54 19.1 12.1 64 225 0.3 1.1 1009.7 0.0000 0.0000
06:05 19 12 64 225 0.3 0.8 1009.5 0.0000 0.0000
06:14 19 11.8 63 135 0.3 0.8 1009.5 0.0000 0.0000
06:24 19 12 64 0.3 0.8 1009.7 0.0000 0.0000
06:34 19 11.8 63 180 0.3 0.6 1009.5 0.0000 0.0000
06:45 19 12 64 180 0.3 0.8 1009.6 0.0000 0.0000
06:55 19.4 12.2 63 135 0.3 0.6 1009.7 0.0000 0.0000
07:05 19.3 12.1 63 165 0.3 0.6 1009.9 0.0000 0.0000
07:15 19.4 12.4 64 135 0.3 0.6 1009.8 0.0000 0.0000
07:25 19.6 12.4 63 135 0.3 0.8 1009.8 0.0000 0.0000
07:35 19.5 12.3 63 270 0.3 0.6 1009.6 0.0000 0.0000
07:45 19.4 12.4 64 270 0.3 0.8 1009.8 0.0000 0.0000
07:56 19.5 12.8 65 135 0.3 0.8 1009.8 0.0000 0.0000
08:06 19.5 12.5 64 225 0.3 0.6 1009.9 0.0000 0.0000
08:16 19.5 12.5 64 180 0.3 0.6 1010 0.0000 0.0000
08:26 19.5 12.5 64 180 0.3 0.6 1010 0.0000 0.0000
08:36 19.7 12.9 65 171 0.3 0.6 1010.1 0.0000 0.0000
08:46 19.9 12.9 64 146 0.3 0.6 1010.1 0.0000 0.0000
08:56 19.9 12.9 64 156 0.3 0.6 1010.2 0.0000 0.0000
09:07 19.9 12.9 64 0 0.3 1010.1 0.0000 0.0000
09:16 20.1 12.8 63 45 0.3 0.8 1010 0.0000 0.0000
09:26 20.1 13.1 64 90 0.3 0.6 1010 0.0000 0.0000
09:36 20.2 13.4 65 90 0.3 0.6 1010 0.0000 0.0000
09:47 20.4 13.4 64 90 0.3 0.6 1010 0.0000 0.0000
09:57 20.5 13.2 63 45 0.3 0.6 1010 0.0000 0.0000
10:06 20.5 13.2 63 135 0.3 0.8 1010.2 0.0000 0.0000
10:17 20.8 13.7 64 90 0.3 0.8 1010.3 0.0000 0.0000
10:27 20.9 13.6 63 90 0.3 0.8 1010.3 0.0000 0.0000
10:37 20.9 13.6 63 0.3 0.6 1010.3 0.0000 0.0000
10:47 20.9 13.8 64 0 0.6 1010.4 0.0000 0.0000
10:57 20.9 14.1 65 149 0.3 0.6 1010.4 0.0000 0.0000
11:07 20.9 14.1 65 315 0.3 0.6 1010.5 0.0000 0.0000
11:17 21.1 14.3 65 135 0.3 1.1 1010.4 0.0000 0.0000
11:28 21 14.2 65 135 0.3 0.8 1010.5 0.0000 0.0000
11:37 21.1 14.5 66 146 0.3 0.6 1010.6 0.1010 0.1000
11:47 21.1 14.5 66 161 0.3 0.8 1010.6 0.1010 0.1000
11:57 21.1 14.7 67 198 0.3 0.6 1010.6 0.1010 0.1000
12:08 21.1 14.5 66 315 0.3 0.8 1010.6 0.1010 0.1000
12:23 21.2 14.8 67 180 0.3 0.8 1010.4 0.1010 0.1000
12:33 21.3 14.9 67 168 0.3 0.6 1010.3 0.1010 0.1000
12:43 21.4 14.6 65 153 0.3 0.6 1010.4 0.0000 0.1000
12:53 21.7 15.1 66 225 0.3 0.6 1010.4 0.0000 0.1000
13:03 21.8 14.9 65 45 0.3 1.1 1010.4 0.0000 0.1000
13:14 21.9 14.8 64 18 0.3 0.8 1010.2 0.0000 0.1000
13:24 22 15.1 65 90 0.3 1.4 1010.1 0.0000 0.1000
13:33 22.1 14.5 62 45 0.3 1.4 1009.9 0.0000 0.1000
13:43 22.2 14.6 62 45 0.3 0.6 1009.8 0.0000 0.1000
13:54 22.3 14.7 62 90 0.3 1.1 1009.8 0.0000 0.1000
14:04 22.4 14.8 62 153 0.3 0.8 1009.6 0.0000 0.1000
14:14 22.4 14.5 61 0.3 0.6 1009.7 0.0000 0.1000
14:24 22.3 14.7 62 225 0.3 0.6 1009.8 0.0000 0.1000
14:34 22.4 14.8 62 225 0.3 0.6 1009.5 0.0000 0.1000
14:44 22.5 14.6 61 180 0.3 1.1 1009.6 0.0000 0.1000
14:54 22.5 14.6 61 90 0.3 0.6 1009.4 0.0000 0.1000
15:05 22.6 14.7 61 225 0.3 1.4 1009.5 0.0000 0.1000
15:15 22.8 15.1 62 135 0.3 0.6 1009.3 0.0000 0.1000
15:24 23 14.8 60 45 0.3 0.6 1009.3 0.0000 0.1000
15:35 23 15.1 61 270 0.3 0.8 1009.3 0.0000 0.1000
15:45 23.1 14.9 60 26 0.3 1.1 1009.2 0.0000 0.1000
15:55 23.1 15.2 61 353 0.3 0.8 1009.1 0.0000 0.1000
16:05 23 14.6 59 45 0.3 1.4 1009.2 0.0000 0.1000
16:16 23 14.8 60 225 0.3 1.1 1009.2 0.0000 0.1000
16:26 22.9 14.5 59 206 0.3 0.8 1009.1 0.0000 0.1000
16:35 22.8 13.8 57 315 0.3 0.8 1009.3 0.0000 0.1000
16:45 22.7 13.5 56 270 0.3 1.1 1009.5 0.0000 0.1000
16:56 22.6 13.4 56 225 0.3 0.8 1009.5 0.0000 0.1000
17:06 22.5 13.3 56 225 0.3 0.8 1009.5 0.0000 0.1000
17:16 22.4 13.5 57 225 0.3 0.8 1009.6 0.0000 0.1000
17:26 22.4 14 59 168 0.3 0.6 1009.6 0.0000 0.1000
17:36 22.5 14.6 61 135 0.3 0.6 1009.6 0.0000 0.1000
17:46 22.5 14.4 60 174 0.3 0.6 1009.6 0.0000 0.1000
17:56 22.4 14 59 135 0.3 0.6 1009.6 0.0000 0.1000
18:07 22.4 14.3 60 173 0.3 0.8 1009.7 0.0000 0.1000
18:17 22.3 13.9 59 180 0.3 0.6 1009.7 0.0000 0.1000
18:27 22.2 13.6 58 171 0.3 0.8 1009.7 0.0000 0.1000
18:37 21.9 14.5 63 174 0.6 1.9 1010 0.0000 0.1000
18:47 21.5 14.4 64 213 0.6 2.5 1009.9 0.0000 0.1000
18:57 21.3 14.7 66 210 0.3 0.8 1009.7 0.1010 0.2000
19:07 21.2 15.1 68 173 0.3 0.8 1009.6 0.1010 0.2000
19:26 20.9 15 69 156 0.3 0.6 1009.7 0.3030 0.4000
19:29 20.9 15 69 153 0.3 0.8 1009.7 0.3030 0.4000
19:39 21.2 15.3 69 90 0.3 0.6 1009.8 0.3030 0.4000
19:49 21.4 15.5 69 90 0.3 0.6 1010 0.3030 0.5000
19:59 21.5 15.6 69 90 0.3 0.6 1009.9 0.3030 0.5000
20:09 21.6 15.7 69 90 0.3 0.6 1009.9 0.2020 0.5000
20:19 21.7 15.5 68 90 0.3 0.6 1009.8 0.2020 0.6000
20:29 21.7 15.5 68 135 0.3 0.6 1009.6 0.2020 0.6000
20:40 21.8 15.6 68 123 0.3 0.6 1009.6 0.3030 0.7000
20:50 21.8 15.6 68 90 0.3 0.6 1009.7 0.2020 0.7000
21:00 21.8 15.6 68 90 0.3 0.6 1009.6 0.2020 0.7000
21:09 21.8 15.6 68 135 0.3 0.8 1009.7 0.1010 0.7000
21:20 21.7 15.5 68 171 0.3 0.6 1009.8 0.1010 0.7000
21:30 21.7 15.5 68 180 0.3 0.6 1009.7 0.2020 0.8000
21:40 21.6 15.4 68 0.3 0.6 1009.5 0.1010 0.8000
21:50 21.5 15.6 69 153 0.3 0.6 1009.4 0.1010 0.8000
22:01 21.4 15.5 69 0 0.8 1009.5 0.1010 0.8000
22:11 21.3 15.4 69 198 0.3 0.6 1009.4 0.1010 0.8000
22:20 21.2 15.3 69 153 0.3 0.6 1009.1 0.1010 0.8000
22:31 20.9 15 69 225 0.3 0.6 1009.1 0.0000 0.8000
22:41 20.8 15.1 70 180 0.3 0.6 1009 0.0000 0.8000
22:51 20.7 15 70 135 0.3 0.6 1009 0.0000 0.8000
23:01 20.6 14.9 70 161 0.3 0.6 1008.7 0.0000 0.8000
23:12 20.5 14.8 70 225 0.3 0.6 1008.6 0.0000 0.8000
23:21 20.1 14.7 71 225 0.3 0.6 1008.6 0.0000 0.8000
23:31 19.8 14.6 72 225 0.3 0.6 1008.4 0.0000 0.8000
23:42 19.6 14.6 73 225 0.3 0.8 1008.3 0.0000 0.8000
23:52 19.4 14.4 73 191 0.3 0.8 1008.2 0.0000 0.8000

DAY STATISTIC

2019-08-17
TEMPERATURE
AVERAGE
20.9
HIGH
23.1
15:45
LOW
19.0
06:05
PRESSURE
AVERAGE
1009.9
HIGH
1011.2
00:10
LOW
1008.2
23:52
DEWPOINT
AVERAGE
13.8
HIGH
15.7
20:09
LOW
11.8
06:14
HUMIDITY
AVERAGE
64
HIGH
73
23:42
LOW
56
16:45
WIND SPEED
AVERAGE
0.3
HIGH
0.6
18:37
WIND GUST
AVERAGE
0.7
HIGH
2.5
18:47
WIND DIRECTION
PREVAILING
SE
25.4%
N
1.4
NE
7.0
E
12.0
SE
25.4
S
19.7
SW
14.8
W
3.5
NW
2.1
PRECIPITATION
RAIN HOUR
0.3
RAIN DAY
0.8
TEMPERATURE (°C)
LOW
19.0
HIGH
23.1
AVERAGE
20.9
PRESSURE (hpa)
LOW
1008.2
HIGH
1011.2
AVERAGE
1009.9
DEVICE